METEOR 2-5 DEB, 35255

Orbit data source: Space-Track

METEOR 2-5 DEB, 35255 is space debris in LEO originally from a launch on Wed, 31 Oct 1979 UTC launched from the Plesetsk Missile And Space Complex (PKMTR). Debris objects in space refer to the collection of defunct objects orbiting the Earth. Examples of debris include non-operational satellites, rocket bodies, and fragments generated from explosions, collisions, or faulty payload assembly.

Loading next visibility...
Identifier
35255, 1979-095W
Orbit
LEO
Country
Flag of CISCIS
Related business
Manufacturer
Unknown
Mission
Spacecraft
Bus & Motor
Unknown
Mass
Unknown
Launch date (UTC)
1979-10-31 (46 years ago)
Launch vehicle
Unknown
Launch site
Plesetsk Missile And Space Complex (PKMTR)
Object type
Payload
Rocket body
Debris
Shape & HBR
Unknown shape, 0.1 m
Radar Cross Section
Small (<0.1 m²)

Expand to show TLE details & history
Last TLE update: 3 weeks ago

TLE from 3 weeks ago
0 METEOR 2-5 DEB
1 35255U 79095W   25272.57976673  .00019818  00000-0  59838-2 0  9990
2 35255  81.2040  13.0656 0012015  84.1860 276.0698 14.42294986636860
Epoch: 2025-09-29T13:54Z
TLE epoch observation values (Epoch: 2025-09-29T13:54:51.845Z)
Latitude
-0.00001°
Longitude
155.76813°
Altitude
752.972 km
Speed
7.479 km/s
True Right ascension
00h 52m 15s
True Declination
0° 00' 00"
Sunlit
Object was in full shadow at epoch
Visualization orbit readout
Latitude
Unknown
Longitude
Unknown
Altitude
Unknown
Speed
Unknown
Apparent Right ascension
Unknown
Apparent Declination
Unknown
Sunlit
N/A
Visualization observer readout
Local Sidereal Time
17:48:07
Azimuth
Unknown
Elevation
Unknown
Doppler factor
Unknown
Orbital elements
Apogee altitude
756.621 km
Perigee altitude
739.497 km
Semi-major axis
7,126.196 km
Eccentricity
0.0012
Inclination
81.204°
RAAN
13.0656°
Arg. of periapsis
84.186°
True anomaly
275.93287°
Mean anomaly
276.0698°
Eccentric anomaly
276.00134°
Mean motion
3.60792 °/min
Orbital period
99.78 mins
BSTAR
0.0059838
Loading maneuver chart data...
Computing Atmospheric mass density...
Loading historical data...
Loading historical data...
Loading historical data...
Loading historical data...
Loading historical data...
Loading historical data...
Loading historical data...

Documentation

Showing up to 5 results
|